When you browse on this site, cookies collect data to enhance your experience and personalize the content and advertising you see.
Visit our Privacy Policy to learn more. By continuing to use the site, you agree to this use of cookies and data.
  • In Hungary
  • List of Countries
  • For 7 days
  • Water Temperature
  • Weather Map
  • News
  • Weather Widgets
  • user-avatar
    Login

    Hourly Weather Klemyatino

    Today, 25 February, Tuesday

    Time Temperature Precipitation Wind Pressure Humidity
    00:00 -2°C° 0 mm 3 mps 731 mmHg 77%
    01:00 -2°C° 0 mm 3 mps 731 mmHg 78%
    02:00 -2°C° 0 mm 3 mps 732 mmHg 79%
    03:00 -4°C° 0 mm 3 mps 732 mmHg 80%
    04:00 -4°C° 0 mm 3 mps 732 mmHg 81%
    05:00 -4°C° 0 mm 3 mps 732 mmHg 82%
    06:00 -4°C° 0 mm 3 mps 732 mmHg 82%
    07:00 -4°C° 0 mm 3 mps 732 mmHg 81%
    08:00 -4°C° 0 mm 3 mps 732 mmHg 80%
    09:00 -2°C° 0 mm 3 mps 732 mmHg 73%
    10:00 -1°C° 0 mm 3 mps 732 mmHg 65%
    11:00 0°C° 0 mm 3 mps 732 mmHg 58%
    12:00 +1°C° 0 mm 3 mps 732 mmHg 55%
    13:00 +1°C° 0 mm 3 mps 732 mmHg 52%
    14:00 +1°C° 0 mm 3 mps 732 mmHg 49%
    15:00 +1°C° 0 mm 3 mps 731 mmHg 55%
    16:00 +1°C° 0 mm 2 mps 731 mmHg 61%
    17:00 +1°C° 0 mm 1 mps 731 mmHg 67%
    18:00 -1°C° 0 mm 2 mps 731 mmHg 68%
    19:00 -2°C° 0 mm 2 mps 731 mmHg 70%
    20:00 -2°C° 0 mm 2 mps 731 mmHg 72%
    21:00 -2°C° 0 mm 3 mps 730 mmHg 73%
    22:00 -1°C° 0 mm 3 mps 729 mmHg 74%
    23:00 -1°C° 0 mm 3 mps 728 mmHg 75%

    Tomorrow, 26 February, Wednesday

    Time Temperature Precipitation Wind Pressure Humidity
    00:00 -2°C° 0.1 mm 4 mps 728 mmHg 80%
    01:00 -2°C° 0.1 mm 4 mps 727 mmHg 86%
    02:00 -2°C° 0.1 mm 5 mps 727 mmHg 91%
    03:00 -2°C° 0.2 mm 4 mps 726 mmHg 93%
    04:00 -1°C° 0.2 mm 4 mps 725 mmHg 95%
    05:00 -1°C° 0.2 mm 4 mps 724 mmHg 96%
    06:00 0°C° 0.3 mm 4 mps 724 mmHg 96%
    07:00 0°C° 0.3 mm 4 mps 724 mmHg 95%
    08:00 +1°C° 0.3 mm 4 mps 723 mmHg 95%
    09:00 +1°C° 0.9 mm 4 mps 723 mmHg 96%
    10:00 +1°C° 0.9 mm 4 mps 723 mmHg 96%
    11:00 +2°C° 0.9 mm 3 mps 723 mmHg 97%
    12:00 +1°C° 0.4 mm 3 mps 723 mmHg 97%
    13:00 +1°C° 0.4 mm 3 mps 723 mmHg 97%
    14:00 +2°C° 0.4 mm 2 mps 723 mmHg 97%
    15:00 +2°C° 0 mm 2 mps 724 mmHg 96%
    16:00 +2°C° 0 mm 2 mps 724 mmHg 96%
    17:00 +3°C° 0 mm 1 mps 724 mmHg 95%
    18:00 +2°C° 0 mm 1 mps 724 mmHg 95%
    19:00 +1°C° 0 mm 1 mps 725 mmHg 95%
    20:00 +1°C° 0 mm 1 mps 725 mmHg 94%
    21:00 +1°C° 0 mm 1 mps 725 mmHg 94%
    22:00 +1°C° 0 mm 1 mps 725 mmHg 94%
    23:00 +1°C° 0 mm 1 mps 725 mmHg 93%

    Day after tomorrow, 27 February, Thursday

    Time Temperature Precipitation Wind Pressure Humidity
    00:00 +1°C° 0 mm 1 mps 725 mmHg 93%
    01:00 +1°C° 0 mm 1 mps 725 mmHg 93%
    02:00 +1°C° 0 mm 1 mps 725 mmHg 93%
    03:00 +1°C° 0 mm 1 mps 725 mmHg 93%
    04:00 +1°C° 0 mm 1 mps 724 mmHg 94%
    05:00 +1°C° 0 mm 1 mps 724 mmHg 94%
    06:00 +1°C° 0 mm 1 mps 724 mmHg 94%
    07:00 +1°C° 0 mm 1 mps 724 mmHg 94%
    08:00 +1°C° 0 mm 1 mps 724 mmHg 94%
    09:00 +2°C° 0.2 mm 1 mps 724 mmHg 95%
    10:00 +2°C° 0.2 mm 1 mps 723 mmHg 95%
    11:00 +2°C° 0.2 mm 1 mps 723 mmHg 96%
    12:00 +2°C° 0.1 mm 1 mps 723 mmHg 96%
    13:00 +2°C° 0.1 mm 1 mps 723 mmHg 97%
    14:00 +2°C° 0.1 mm 1 mps 723 mmHg 97%
    15:00 +1°C° 0.1 mm 2 mps 723 mmHg 95%
    16:00 0°C° 0.1 mm 3 mps 723 mmHg 92%
    17:00 -1°C° 0.1 mm 4 mps 723 mmHg 89%
    18:00 -1°C° 0 mm 3 mps 723 mmHg 88%
    19:00 -1°C° 0 mm 3 mps 724 mmHg 87%
    20:00 -2°C° 0 mm 3 mps 724 mmHg 85%
    21:00 -2°C° 0 mm 3 mps 725 mmHg 87%
    22:00 -2°C° 0 mm 3 mps 725 mmHg 90%
    23:00 -2°C° 0 mm 2 mps 725 mmHg 92%

    28 February, Friday

    Time Temperature Precipitation Wind Pressure Humidity
    00:00 -3°C° 0 mm 2 mps 725 mmHg 92%
    01:00 -3°C° 0 mm 2 mps 725 mmHg 92%
    02:00 -3°C° 0 mm 2 mps 726 mmHg 92%
    03:00 -3°C° 0 mm 2 mps 726 mmHg 92%
    04:00 -3°C° 0 mm 2 mps 726 mmHg 91%
    05:00 -4°C° 0 mm 2 mps 726 mmHg 91%
    06:00 -3°C° 0 mm 2 mps 726 mmHg 89%
    07:00 -4°C° 0 mm 3 mps 726 mmHg 86%
    08:00 -4°C° 0 mm 3 mps 727 mmHg 84%
    09:00 -4°C° 0 mm 3 mps 727 mmHg 80%
    10:00 -4°C° 0 mm 3 mps 727 mmHg 77%
    11:00 -2°C° 0 mm 3 mps 727 mmHg 73%
    12:00 -2°C° 0 mm 3 mps 727 mmHg 71%
    13:00 -2°C° 0 mm 3 mps 728 mmHg 70%
    14:00 -1°C° 0 mm 3 mps 728 mmHg 69%
    15:00 -2°C° 0 mm 3 mps 728 mmHg 70%
    16:00 -2°C° 0 mm 3 mps 728 mmHg 72%
    17:00 -2°C° 0 mm 3 mps 729 mmHg 73%
    18:00 -2°C° 0 mm 3 mps 729 mmHg 74%
    19:00 -4°C° 0 mm 3 mps 730 mmHg 75%
    20:00 -4°C° 0 mm 3 mps 730 mmHg 75%
    21:00 -4°C° 0 mm 3 mps 730 mmHg 76%
    22:00 -4°C° 0 mm 3 mps 730 mmHg 76%
    23:00 -4°C° 0 mm 3 mps 730 mmHg 77%

    29 February, Saturday

    Time Temperature Precipitation Wind Pressure Humidity
    00:00 -4°C° 0 mm 3 mps 730 mmHg 77%
    01:00 -3°C° 0 mm 2 mps 731 mmHg 78%
    02:00 -4°C° 0 mm 2 mps 731 mmHg 79%
    03:00 -4°C° 0 mm 3 mps 731 mmHg 80%
    04:00 -4°C° 0 mm 3 mps 731 mmHg 81%
    05:00 -4°C° 0 mm 3 mps 731 mmHg 82%
    06:00 -4°C° 0.1 mm 3 mps 731 mmHg 83%
    07:00 -4°C° 0.1 mm 3 mps 731 mmHg 84%
    08:00 -3°C° 0.1 mm 4 mps 731 mmHg 85%
    09:00 -2°C° 0 mm 3 mps 732 mmHg 78%
    10:00 -1°C° 0 mm 3 mps 732 mmHg 71%
    11:00 -1°C° 0 mm 3 mps 732 mmHg 65%
    12:00 -1°C° 0 mm 3 mps 732 mmHg 61%
    13:00 0°C° 0 mm 3 mps 732 mmHg 57%
    14:00 0°C° 0 mm 3 mps 732 mmHg 52%
    15:00 -1°C° 0 mm 3 mps 733 mmHg 56%
    16:00 -1°C° 0 mm 2 mps 733 mmHg 60%
    17:00 -2°C° 0 mm 2 mps 733 mmHg 64%
    18:00 0°C° 0 mm 1 mps 734 mmHg 67%
    19:00 -1°C° 0 mm 1 mps 734 mmHg 69%
    20:00 -1°C° 0 mm 1 mps 734 mmHg 72%
    21:00 -1°C° 0 mm 1 mps 734 mmHg 72%
    22:00 -3°C° 0 mm 2 mps 735 mmHg 72%
    23:00 -3°C° 0 mm 2 mps 735 mmHg 73%

    1 March, Sunday

    Time Temperature Precipitation Wind Pressure Humidity
    00:00 -3°C° 0 mm 2 mps 735 mmHg 73%
    01:00 -4°C° 0 mm 2 mps 735 mmHg 73%
    02:00 -4°C° 0 mm 2 mps 735 mmHg 73%
    03:00 -4°C° 0 mm 2 mps 735 mmHg 74%
    04:00 -4°C° 0 mm 2 mps 735 mmHg 74%
    05:00 -4°C° 0 mm 2 mps 735 mmHg 74%
    06:00 -4°C° 0 mm 2 mps 735 mmHg 74%
    07:00 -4°C° 0 mm 3 mps 736 mmHg 74%
    08:00 -4°C° 0 mm 3 mps 736 mmHg 75%
    09:00 -2°C° 0 mm 3 mps 736 mmHg 73%
    10:00 -1°C° 0 mm 3 mps 736 mmHg 72%
    11:00 -1°C° 0 mm 3 mps 736 mmHg 71%
    12:00 0°C° 0 mm 3 mps 736 mmHg 69%
    13:00 0°C° 0 mm 3 mps 736 mmHg 68%
    14:00 +1°C° 0 mm 3 mps 736 mmHg 67%
    15:00 0°C° 0 mm 3 mps 736 mmHg 69%
    16:00 0°C° 0 mm 3 mps 735 mmHg 71%
    17:00 -1°C° 0 mm 3 mps 735 mmHg 73%
    18:00 -1°C° 0 mm 3 mps 735 mmHg 72%
    19:00 -2°C° 0 mm 4 mps 735 mmHg 71%
    20:00 -2°C° 0 mm 4 mps 735 mmHg 71%
    21:00 -2°C° 0.3 mm 5 mps 735 mmHg 78%
    22:00 -2°C° 0.3 mm 5 mps 734 mmHg 86%
    23:00 -4°C° 0.3 mm 5 mps 734 mmHg 94%
    Show more